Location: Burla
(50.9568°N, 10.4983°E)
Time: 21:06:29
(UTC+00:00)

Meteor 2-15 - Pass Details

Date: 18 January 2026
Orbit: 935 x 955 km, 82.5° (Epoch: 18 February)

Event Time Altitude Azimuth Distance (km) Brightness Sun altitude
Rises 06:27:56 0° 191° (S) 3,619 7.7 -6.9°
Reaches altitude 10° 06:30:25 10° 192° (SSW) 2,678 7.0 -6.6°
Maximum altitude 06:36:34 83° 280° (W) 970 4.5 -5.7°
Drops below altitude 10° 06:42:46 10° 9° (N) 2,696 6.7 -4.8°
Sets 06:45:17 0° 11° (N) 3,645 7.3 -4.5°
